Location: Newark
(48.9358°N, 1.4000°E)
Time: 17:17:38
(UTC+00:00)

N. Korean satellite - Pass Details

Date: 15 October 2019
Orbit: 456 x 506 km, 97.2° (Epoch: 16 November)

Event Time Altitude Azimuth Distance (km) Brightness Sun altitude
Rises 17:32:22 0° 190° (S) 2,465 10.4 -5.2°
Reaches altitude 10° 17:34:34 10° 203° (SSW) 1,596 9.6 -5.6°
Maximum altitude 17:37:35 28° 264° (W) 885 9.0 -6.0°
Drops below altitude 10° 17:40:37 10° 326° (NW) 1,613 9.6 -6.5°
Sets 17:42:52 0° 338° (NNW) 2,498 10.4 -6.9°
